{"data":{"norad_id":68582,"epoch":"2026-09-20T00:00:02.998944Z","epoch_age_seconds":109685,"freshness":"FRESH","line1":"1 68582U 26072K   26263.00003471  .00030168  00000+0  42976-2 0  9997","line2":"2 68582  51.9025  86.3259 0001437 201.4142  67.4828 14.76551518  4513","mean_motion":14.76551518,"eccentricity":0.0001437,"inclination_deg":51.9025,"raan_deg":86.3259,"arg_perigee_deg":201.4142,"mean_anomaly_deg":67.4828,"bstar":0.0042976,"rev_number":451,"period_min":97.524534866924,"perigee_km":639.221956911,"apogee_km":641.23903572945,"semimajor_km":7018.3674963202,"source":"CELESTRAK","updated_at":"2026-09-20T09:00:24.320394Z"}}